Location: Unspecified
(48.8656°N, 0.0000°E)
Time: 02:08:22
(UTC+00:00)

Vanguard 1 - Pass Details

Date: 26 June 2019
Orbit: 653 x 3830 km, 34.3° (Epoch: 22 July)

Event Time Altitude Azimuth Distance (km) Brightness Sun altitude
Rises 00:00:00 0° 210° (SSW) 7,960 - -17.8°
Reaches altitude 10° 00:06:50 10° 200° (SSW) 6,870 - -17.8°
Exits shadow 00:14:23 21° 185° (S) 5,724 13.3 -17.7°
Maximum altitude 00:23:30 28° 152° (SSE) 4,723 13.0 -17.6°
Drops below altitude 10° 00:35:42 10° 101° (E) 5,031 13.6 -17.4°
Sets 00:39:38 0° 90° (E) 5,609 14.0 -17.3°
